This is the latest recevied weather packets stored in our database for station/object PP5CFL-2. If no packets are shown the sender has not sent any weather packets the latest 10 day(s).
| Time | Temp. | Humidity | Pressure | Rain* | Wind** | Luminosity | Snow |
|---|---|---|---|---|---|---|---|
| 1778273631 | 17.78° C | 95% | 1013.5 hPa | - | - | - | - |
| 1778273331 | 17.78° C | 95% | 1013.2 hPa | - | - | - | - |
| 1778273031 | 18.33° C | 93% | 1013.2 hPa | - | - | - | - |
| 1778272731 | 18.33° C | 92% | 1013 hPa | - | - | - | - |
| 1778272431 | 17.78° C | 95% | 1012.9 hPa | - | - | - | - |
| 1778272131 | 17.78° C | 93% | 1012.6 hPa | - | - | - | - |
| 1778271831 | 17.78° C | 91% | 1012.5 hPa | - | - | - | - |
| 1778271531 | 18.33° C | 92% | 1012.4 hPa | - | - | - | - |
| 1778271231 | 18.33° C | 90% | 1012.2 hPa | - | - | - | - |
| 1778270931 | 18.33° C | 89% | 1012 hPa | - | - | - | - |
| 1778270631 | 18.33° C | 89% | 1012.1 hPa | - | - | - | - |
| 1778270331 | 18.33° C | 87% | 1012.1 hPa | - | - | - | - |
| 1778270031 | 18.89° C | 86% | 1012 hPa | - | - | - | - |
| 1778269731 | 18.89° C | 86% | 1011.8 hPa | - | - | - | - |
| 1778269431 | 19.44° C | 86% | 1011.6 hPa | - | - | - | - |
| 1778269131 | 18.89° C | 89% | 1011.7 hPa | - | - | - | - |
| 1778268831 | 18.89° C | 89% | 1011.9 hPa | - | - | - | - |
| 1778268531 | 18.33° C | 90% | 1011.9 hPa | - | - | - | - |
| 1778268231 | 18.33° C | 91% | 1012.2 hPa | - | - | - | - |
| 1778267931 | 17.78° C | 92% | 1012.4 hPa | - | - | - | - |
| 1778267631 | 18.33° C | 93% | 1012.3 hPa | - | - | - | - |
| 1778267331 | 18.33° C | 95% | 1012.1 hPa | - | - | - | - |
| 1778267031 | 18.33° C | 95% | 1012.3 hPa | - | - | - | - |
| 1778266731 | 18.33° C | 97% | 1012.3 hPa | - | - | - | - |
| 1778266431 | 18.33° C | 97% | 1012.3 hPa | - | - | - | - |
* Rain since midnight (hover to see other rain measurements)
** Current wind speed in m/s (hover to see current wind gust speed)